Location: *
(46.1200°N, 11.2700°E)
Time: 10:07:37
(UTC+00:00)

Cosmos 2360 Rocket - Pass Details

Date: 02 March 2021
Orbit: 833 x 846 km, 71.0° (Epoch: 18 April)

Event Time Altitude Azimuth Distance (km) Brightness Sun altitude
Rises 18:52:42 0° 207° (SSW) 3,375 5.5 -19.8°
Reaches altitude 10° 18:55:08 10° 209° (SSW) 2,446 4.8 -20.2°
Maximum altitude 19:00:45 81° 296° (WNW) 857 2.2 -21.1°
Drops below altitude 10° 19:06:27 10° 25° (NNE) 2,472 4.5 -22.1°
Sets 19:08:54 0° 26° (NNE) 3,412 5.2 -22.5°
